Overview Statistics Trail Chart Weather Telemetry Raw packets
 

This is the latest recevied weather packets stored in our database for station/object KI4NG. If no packets are shown the sender has not sent any weather packets the latest 10 day(s).

<< 110 111 112 113 114 >>
Time Temp. Humidity Pressure Rain* Wind** Luminosity Snow
1787787291 24.44° C 87% 1017.7 hPa 0 mm - 47 W/m² -
1787786990 24.44° C 86% 1017.5 hPa 0 mm - 42 W/m² -
1787786686 24.44° C 85% 1017.5 hPa 0 mm - 38 W/m² -
1787786385 25° C 83% 1017.5 hPa 0 mm - 35 W/m² -
1787786081 25° C 83% 1017.7 hPa 0 mm - 38 W/m² -
1787785776 25° C 82% 1017.5 hPa 0 mm - 36 W/m² -
1787785472 25.56° C 83% 1017.4 hPa 0 mm - 43 W/m² -
1787785171 25.56° C 81% 1017.5 hPa 0 mm - 52 W/m² -
1787784866 26.11° C 81% 1017.2 hPa 0 mm - 61 W/m² -
1787784565 26.11° C 76% 1017.3 hPa 0 mm - 73 W/m² -
1787784259 25.56° C 76% 1017.4 hPa 0 mm - 81 W/m² -
1787783955 26.11° C 78% 1017.2 hPa 0 mm - 90 W/m² -
1787783651 26.11° C 78% 1017.3 hPa 0 mm - 105 W/m² -
1787783350 26.11° C 79% 1017.5 hPa 0 mm - 104 W/m² -
1787783045 26.11° C 79% 1017.4 hPa 0 mm - 104 W/m² -
1787782744 26.11° C 79% 1017.5 hPa 0 mm - 103 W/m² -
1787782441 26.11° C 77% 1017.5 hPa 0 mm - 100 W/m² -
1787782136 26.11° C 77% 1017.4 hPa 0 mm - 91 W/m² -
1787781835 26.67° C 76% 1017.5 hPa 0 mm - 84 W/m² -
1787781534 26.67° C 74% 1017.3 hPa 0 mm - 86 W/m² -
1787781233 26.67° C 74% 1017.4 hPa 0 mm - 105 W/m² -
1787780931 27.22° C 72% 1017.2 hPa 0 mm - 109 W/m² -
1787780626 26.67° C 73% 1017.1 hPa 0 mm - 117 W/m² -
1787780321 27.78° C 66% 1017.2 hPa 0 mm - 147 W/m² -
1787780017 27.78° C 67% 1017.1 hPa 0 mm - 177 W/m² -

* Rain latest hour (hover to see other rain measurements)
** Current wind speed in m/s (hover to see current wind gust speed)